Regional Weather Roundup
Issued by NWS

Home | Current Version | Previous Version | Text Only | Print | Product List | Glossary Off
Versions: 1 2 3 4 5 6 7 8 9 10 11 12 13 14 15 16 17 18 19 20 21 22 23 24 25 26 27 28 29 30 31 32 33 34 35 36 37 38 39 40 41 42 43 44 45 46 47 48 49 50

000
ASUS45 KABQ 230710
RWRNM
NEW MEXICO REGIONAL WEATHER ROUNDUP
NATIONAL WEATHER SERVICE ALBUQUERQUE NM
100 AM MDT WED AUG 23 2017

NOTE: "FAIR" MEANS FEW OR NO CLOUDS BELOW 12,000 FEET AGL WITH NO
       SIGNIFICANT WEATHER OR OBSTRUCTIONS TO VISION.

      THIS PRODUCT IS RELEASED AS TWO VERSIONS.  ONE VERSION NEAR
      THE TOP OF THE HOUR CONTAINING PRELIMINARY DATA FROM ALBUQUERQUE
      AND OTHER STATIONS.  A FINAL VERSION WITH ADDITIONAL DATA IS
      ISSUED ABOUT 10 MINUTES AFTER THE HOUR.

NMZ501-503-504-510>518-230800-
NORTHWEST PLATEAU/NORTHCENTRAL MOUNTAINS

CITY           SKY/WX    TMP DP  RH WIND       PRES   REMARKS
FARMINGTON     FAIR      69  46  43 E10       30.26R
LOS ALAMOS     CLOUDY    61  49  64 N10G18    30.45S
SANTA FE       FAIR      62  56  80 N6        30.39S
TAOS           FAIR      55  53  93 N5        30.45F
ANGEL FIRE     CLOUDY    50  49  95 CALM      30.52S

$$
NMZ402-403-502-505>509-230800-
WESTCENTRAL MOUNTAINS/SOUTHWEST MOUNTAINS

CITY           SKY/WX    TMP DP  RH WIND       PRES   REMARKS
GALLUP         FAIR      60  39  45 CALM      30.32S
GRANTS         FAIR      65  55  69 SE13      30.37S
SILVER CITY    MOCLDY    64  55  70 N6        30.25S

$$
NMZ407-409-411-412-230800-
SOUTHERN DESERTS

CITY           SKY/WX    TMP DP  RH WIND       PRES   REMARKS
DEMING         FAIR      73  62  68 E3        30.16S
LAS CRUCES     FAIR      76  60  56 SE6       30.19S
HOLLOMAN AFB   FAIR      76  62  62 NW7       30.17S
ALAMOGORDO     FAIR      75  59  57 NW6       30.16S
T OR C         CLOUDY    76  63  64 CALM      30.19S

$$
NMZ519>523-230800-
CENTRAL VALLEYS/CENTRAL HIGHLANDS

CITY           SKY/WX    TMP DP  RH WIND       PRES   REMARKS
ALBUQUERQUE    TSTM      67  61  81 E16       30.31S
MORIARTY ARPT  CLOUDY    64  61  90 W3        30.40R
CLINES CORNERS MOCLDY    58  56  93 E9        30.43S
BELEN          MOCLDY    70  57  61 NW8       30.29R THUNDER
SOCORRO        FAIR      72  59  64 CALM      30.25S

$$
NMZ524>526-539-540-230800-
SOUTHCENTRAL MOUNTAINS

CITY           SKY/WX    TMP DP  RH WIND       PRES   REMARKS
RUIDOSO        CLOUDY    61  59  94 SE9       30.43F

$$
NMZ527>531-230800-
NORTHEAST HIGHLANDS/NORTHEAST PLAINS

CITY           SKY/WX    TMP DP  RH WIND       PRES   REMARKS
LAS VEGAS      LGT RAIN  55  52  89 NE7       30.42F
RATON          FAIR      53  52  96 NE8       30.36F
CLAYTON        FAIR      59  59 100 W8        30.29F

$$
NMZ532>537-230800-
EASTCENTRAL PLAINS

CITY           SKY/WX    TMP DP  RH WIND       PRES   REMARKS
SANTA ROSA     CLOUDY    65  64  94 CALM      30.30S
TUCUMCARI      FAIR      69  67  93 CALM      30.22F
CANNON AFB     FAIR      66  66 100 NW6       30.25F
CLOVIS AIRPORT FAIR      65  64  97 NW7       30.24F

$$
NMZ028-029-538-230800-
SOUTHEAST PLAINS

CITY           SKY/WX    TMP DP  RH WIND       PRES   REMARKS
ROSWELL        FAIR      71  64  78 N5        30.22S
ARTESIA        MOCLDY    72  64  78 N6        30.22S
CARLSBAD       FAIR      72  68  87 NE7       30.17S
HOBBS          FAIR      66  64  94 E6        30.19F


$$



USA.gov is the U.S. government's official web portal to all federal, state and local government web resources and services.